| time (UTC) | temp F | wind direction | speed knots | gust knots | rain 1hr in | rain 24hr in | rain mn in | humidity % | barometer mb |
| 20260508025342 | 63 | 44 | 2.6 | 4.3 | 0.00 | 0.00 | 0.00 | 81 | 1014.2 |
| 20260508024828 | 63 | 50 | 2.6 | 4.3 | 0.00 | 0.00 | 0.00 | 81 | 1014.0 |
| 20260508024335 | 63 | 40 | 2.6 | 4.3 | 0.00 | 0.00 | 0.00 | 81 | 1014.0 |
| 20260508023820 | 63 | 38 | 2.6 | 4.3 | 0.00 | 0.00 | 0.00 | 81 | 1014.0 |
| 20260508023327 | 63 | 348 | 1.7 | 7.0 | 0.00 | 0.00 | 0.00 | 81 | 1014.6 |
| 20260508022831 | 63 | 347 | 2.6 | 7.0 | 0.00 | 0.00 | 0.00 | 81 | 1014.6 |
| 20260508022341 | 63 | 330 | 3.5 | 5.2 | 0.00 | 0.00 | 0.00 | 81 | 1014.6 |
| 20260508021826 | 63 | 35 | 2.6 | 4.3 | 0.00 | 0.00 | 0.00 | 81 | 1014.3 |
| 20260508021324 | 63 | 66 | 1.7 | 4.3 | 0.00 | 0.00 | 0.00 | 81 | 1013.9 |
| 20260508020830 | 63 | 52 | 2.6 | 4.3 | 0.00 | 0.00 | 0.00 | 80 | 1013.7 |
| 20260508020318 | 63 | 96 | 3.5 | 6.1 | 0.00 | 0.00 | 0.00 | 80 | 1013.5 |
| 20260508015826 | 63 | 94 | 3.5 | 6.1 | 0.00 | 0.00 | 0.00 | 81 | 1013.6 |
| 20260508015330 | 63 | 92 | 2.6 | 5.2 | 0.00 | 0.00 | 0.00 | 81 | 1013.8 |
| 20260508014835 | 63 | 89 | 2.6 | 5.2 | 0.00 | 0.00 | 0.00 | 81 | 1013.9 |
| 20260508014320 | 63 | 90 | 1.7 | 3.5 | 0.00 | 0.00 | 0.00 | 81 | 1014.1 |
| 20260508013833 | 63 | 90 | 1.7 | 5.2 | 0.00 | 0.00 | 0.00 | 80 | 1014.1 |
| 20260508013337 | 63 | 85 | 1.7 | 5.2 | 0.00 | 0.00 | 0.00 | 80 | 1014.0 |
| 20260508012846 | 64 | 94 | 2.6 | 5.2 | 0.00 | 0.00 | 0.00 | 80 | 1014.0 |
| 20260508012330 | 64 | 43 | 0.9 | 2.6 | 0.00 | 0.00 | 0.00 | 80 | 1014.2 |
| 20260508011821 | 64 | 39 | 1.7 | 4.3 | 0.00 | 0.00 | 0.00 | 80 | 1014.2 |
| 20260508011328 | 64 | 38 | 1.7 | 4.3 | 0.00 | 0.00 | 0.00 | 80 | 1014.3 |
| 20260508010837 | 64 | 41 | 2.6 | 3.5 | 0.00 | 0.00 | 0.00 | 80 | 1014.4 |
| 20260508010347 | 64 | 41 | 0.9 | 3.5 | 0.00 | 0.00 | 0.00 | 80 | 1014.3 |
| 20260508005831 | 64 | 41 | 1.7 | 4.3 | 0.00 | 0.00 | 0.00 | 80 | 1014.5 |
| 20260508005318 | 64 | 32 | 1.7 | 3.5 | 0.00 | 0.00 | 0.00 | 80 | 1014.4 |
| 20260508004826 | 64 | 12 | 1.7 | 3.5 | 0.00 | 0.00 | 0.00 | 80 | 1014.7 |
| 20260508004329 | 64 | 9 | 0.9 | 4.3 | 0.00 | 0.00 | 0.00 | 80 | 1014.9 |
| 20260508003835 | 64 | 19 | 2.6 | 4.3 | 0.00 | 0.00 | 0.00 | 80 | 1015.0 |
| 20260508003323 | 64 | 24 | 2.6 | 4.3 | 0.00 | 0.00 | 0.00 | 80 | 1014.8 |
| 20260508002833 | 65 | 22 | 2.6 | 4.3 | 0.00 | 0.00 | 0.00 | 80 | 1014.5 |
| 20260508002318 | 65 | 11 | 2.6 | 5.2 | 0.00 | 0.00 | 0.00 | 81 | 1014.9 |
| 20260508001826 | 65 | 338 | 2.6 | 4.3 | 0.00 | 0.00 | 0.00 | 81 | 1015.0 |
| 20260508001331 | 65 | 5 | 1.7 | 3.5 | 0.00 | 0.00 | 0.00 | 81 | 1014.7 |
| 20260508000833 | 65 | 5 | 1.7 | 5.2 | 0.00 | 0.00 | 0.00 | 81 | 1014.8 |
| 20260508000320 | 65 | 5 | 2.6 | 5.2 | 0.00 | 0.00 | 0.00 | 81 | 1014.9 |
| 20260507235834 | 65 | 355 | 2.6 | 5.2 | 0.00 | 0.00 | 0.00 | 81 | 1014.7 |
| 20260507235341 | 65 | 355 | 3.5 | 5.2 | 0.00 | 0.00 | 0.00 | 80 | 1014.8 |
| 20260507234827 | 65 | 360 | 2.6 | 4.3 | 0.00 | 0.00 | 0.00 | 80 | 1014.9 |
| 20260507234333 | 65 | 348 | 1.7 | 5.2 | 0.00 | 0.00 | 0.00 | 81 | 1014.9 |
| 20260507233821 | 65 | 339 | 2.6 | 7.0 | 0.00 | 0.00 | 0.00 | 81 | 1015.0 |
| 20260507233326 | 65 | 346 | 2.6 | 7.0 | 0.00 | 0.00 | 0.00 | 81 | 1015.0 |
| 20260507232900 | 65 | 19 | 2.6 | 7.8 | 0.00 | 0.00 | 0.00 | 81 | 1015.0 |
| 20260507232327 | 65 | 333 | 2.6 | 7.8 | 0.00 | 0.00 | 0.00 | 81 | 1015.1 |
| 20260507231831 | 66 | 15 | 3.5 | 7.8 | 0.00 | 0.00 | 0.00 | 81 | 1014.9 |
| 20260507231337 | 65 | 355 | 3.5 | 7.8 | 0.00 | 0.00 | 0.00 | 81 | 1014.9 |
| 20260507230826 | 65 | 5 | 5.2 | 7.8 | 0.00 | 0.00 | 0.00 | 81 | 1014.7 |
| 20260507230335 | 65 | 26 | 5.2 | 7.8 | 0.00 | 0.00 | 0.00 | 81 | 1014.7 |
| 20260507225844 | 65 | 44 | 3.5 | 6.1 | 0.00 | 0.00 | 0.00 | 81 | 1014.7 |
| 20260507225348 | 66 | 55 | 2.6 | 7.0 | 0.00 | 0.00 | 0.00 | 81 | 1015.0 |
| 20260507224836 | 66 | 49 | 2.6 | 6.1 | 0.00 | 0.00 | 0.00 | 81 | 1015.2 |
| 20260507224324 | 66 | 32 | 4.3 | 8.7 | 0.00 | 0.00 | 0.00 | 82 | 1015.2 |
| 20260507223827 | 65 | 23 | 4.3 | 8.7 | 0.00 | 0.00 | 0.00 | 82 | 1015.3 |
| 20260507223337 | 65 | 26 | 4.3 | 7.8 | 0.00 | 0.00 | 0.00 | 82 | 1015.2 |
| 20260507222851 | 65 | 24 | 4.3 | 7.8 | 0.00 | 0.00 | 0.00 | 81 | 1015.2 |
| 20260507222333 | 65 | 342 | 3.5 | 13.0 | 0.00 | 0.00 | 0.00 | 81 | 1015.3 |
| 20260507221820 | 65 | 24 | 5.2 | 13.0 | 0.00 | 0.00 | 0.00 | 81 | 1015.2 |
| 20260507221349 | 66 | 322 | 7.8 | 13.0 | 0.00 | 0.00 | 0.00 | 81 | 1015.0 |
| 20260507220835 | 66 | 355 | 8.7 | 13.0 | 0.00 | 0.00 | 0.00 | 82 | 1014.9 |
| 20260507220322 | 66 | 341 | 7.0 | 11.3 | 0.00 | 0.00 | 0.00 | 82 | 1015.2 |
| 20260507215825 | 65 | 5 | 5.2 | 11.3 | 0.00 | 0.00 | 0.00 | 82 | 1015.2 |
| 20260507215357 | 65 | 325 | 6.1 | 11.3 | 0.00 | 0.00 | 0.00 | 82 | 1015.4 |
| 20260507214845 | 65 | 9 | 5.2 | 10.4 | 0.00 | 0.00 | 0.00 | 82 | 1015.4 |
| 20260507214349 | 65 | 349 | 3.5 | 9.6 | 0.00 | 0.00 | 0.00 | 82 | 1015.7 |
| 20260507213834 | 65 | 40 | 4.3 | 10.4 | 0.00 | 0.00 | 0.00 | 82 | 1015.8 |
| 20260507213319 | 65 | 355 | 5.2 | 11.3 | 0.00 | 0.00 | 0.00 | 82 | 1015.4 |
| 20260507212854 | 66 | 355 | 4.3 | 12.2 | 0.00 | 0.00 | 0.00 | 82 | 1015.4 |
| 20260507212319 | 65 | 360 | 6.1 | 12.2 | 0.00 | 0.00 | 0.00 | 82 | 1015.2 |
| 20260507211828 | 65 | 32 | 3.5 | 8.7 | 0.00 | 0.00 | 0.00 | 83 | 1015.1 |
| 20260507211334 | 65 | 20 | 4.3 | 8.7 | 0.00 | 0.00 | 0.00 | 82 | 1015.1 |
| 20260507210822 | 65 | 355 | 4.3 | 9.6 | 0.00 | 0.00 | 0.00 | 82 | 1015.0 |
| 20260507210327 | 65 | 41 | 3.5 | 9.6 | 0.00 | 0.00 | 0.00 | 82 | 1014.9 |
| 20260507205836 | 65 | 53 | 4.3 | 9.6 | 0.00 | 0.00 | 0.00 | 82 | 1015.0 |
| 20260507205324 | 66 | 46 | 4.3 | 7.8 | 0.00 | 0.00 | 0.00 | 83 | 1014.8 |
| 20260507204829 | 66 | 58 | 2.6 | 8.7 | 0.00 | 0.00 | 0.00 | 83 | 1015.0 |
| 20260507204318 | 66 | 28 | 5.2 | 9.6 | 0.00 | 0.00 | 0.00 | 83 | 1015.2 |
| 20260507203819 | 66 | 64 | 3.5 | 7.0 | 0.00 | 0.00 | 0.00 | 83 | 1015.4 |
| 20260507203324 | 66 | 37 | 1.7 | 9.6 | 0.00 | 0.00 | 0.00 | 83 | 1015.6 |
| 20260507202840 | 66 | 19 | 3.5 | 12.2 | 0.00 | 0.00 | 0.00 | 83 | 1015.9 |
| 20260507202325 | 66 | 11 | 4.3 | 9.6 | 0.00 | 0.00 | 0.00 | 83 | 1016.0 |
| 20260507201828 | 66 | 17 | 7.0 | 10.4 | 0.00 | 0.00 | 0.00 | 83 | 1015.7 |
| 20260507201337 | 66 | 11 | 6.1 | 11.3 | 0.00 | 0.00 | 0.00 | 83 | 1015.7 |
| 20260507200820 | 66 | 28 | 7.0 | 11.3 | 0.00 | 0.00 | 0.00 | 84 | 1015.8 |
| 20260507200328 | 66 | 355 | 4.3 | 10.4 | 0.00 | 0.00 | 0.00 | 84 | 1015.9 |
| 20260507195903 | 66 | 36 | 5.2 | 10.4 | 0.00 | 0.00 | 0.00 | 84 | 1016.0 |
| 20260507195318 | 66 | 67 | 3.5 | 11.3 | 0.00 | 0.00 | 0.00 | 84 | 1016.1 |
| 20260507194831 | 66 | 360 | 5.2 | 11.3 | 0.00 | 0.00 | 0.00 | 84 | 1016.5 |
| 20260507194357 | 66 | 50 | 4.3 | 10.4 | 0.00 | 0.00 | 0.00 | 84 | 1016.8 |
| 20260507193821 | 67 | 341 | 2.6 | 10.4 | 0.00 | 0.00 | 0.00 | 84 | 1016.8 |
| 20260507193327 | 66 | 336 | 6.1 | 10.4 | 0.00 | 0.00 | 0.00 | 85 | 1016.9 |
| 20260507192830 | 66 | 5 | 3.5 | 10.4 | 0.00 | 0.00 | 0.00 | 85 | 1017.2 |
| 20260507192335 | 66 | 26 | 5.2 | 13.0 | 0.00 | 0.00 | 0.00 | 85 | 1016.2 |
| 20260507191819 | 65 | 20 | 6.1 | 13.0 | 0.00 | 0.00 | 0.00 | 85 | 1016.9 |
| 20260507191334 | 65 | 54 | 7.8 | 12.2 | 0.00 | 0.00 | 0.00 | 85 | 1016.4 |
| 20260507190841 | 65 | 46 | 4.3 | 12.2 | 0.00 | 0.00 | 0.00 | 85 | 1016.5 |
| 20260507190325 | 65 | 62 | 4.3 | 12.2 | 0.00 | 0.00 | 0.00 | 85 | 1016.2 |
| 20260507185831 | 65 | 46 | 7.0 | 13.9 | 0.00 | 0.00 | 0.00 | 85 | 1016.2 |
| 20260507185335 | 66 | 22 | 7.0 | 12.2 | 0.00 | 0.00 | 0.00 | 85 | 1016.6 |
| 20260507184841 | 66 | 17 | 7.0 | 13.0 | 0.00 | 0.00 | 0.00 | 85 | 1016.6 |
| 20260507184352 | 66 | 29 | 6.1 | 13.0 | 0.00 | 0.00 | 0.00 | 86 | 1016.8 |
| 20260507183835 | 66 | 350 | 7.0 | 11.3 | 0.00 | 0.00 | 0.00 | 86 | 1017.1 |
| 20260507183320 | 65 | 31 | 3.5 | 10.4 | 0.00 | 0.00 | 0.00 | 86 | 1017.1 |
| 20260507182825 | 65 | 351 | 5.2 | 9.6 | 0.00 | 0.00 | 0.00 | 86 | 1017.4 |
| 20260507182329 | 64 | 339 | 6.1 | 10.4 | 0.00 | 0.00 | 0.00 | 86 | 1017.5 |
| 20260507181837 | 64 | 346 | 3.5 | 10.4 | 0.00 | 0.00 | 0.00 | 86 | 1016.7 |
| 20260507181321 | 64 | 32 | 7.0 | 10.4 | 0.00 | 0.00 | 0.00 | 86 | 1016.9 |
| 20260507180832 | 64 | 44 | 2.6 | 7.0 | 0.00 | 0.00 | 0.00 | 86 | 1017.4 |
| 20260507180342 | 65 | 56 | 2.6 | 7.8 | 0.00 | 0.00 | 0.00 | 86 | 1017.8 |
| 20260507175828 | 65 | 5 | 4.3 | 10.4 | 0.00 | 0.00 | 0.00 | 87 | 1018.1 |
| 20260507175332 | 64 | 314 | 5.2 | 10.4 | 0.00 | 0.00 | 0.00 | 87 | 1018.0 |
| 20260507174839 | 64 | 5 | 4.3 | 9.6 | 0.00 | 0.00 | 0.00 | 87 | 1017.9 |
| 20260507174319 | 64 | 27 | 5.2 | 9.6 | 0.00 | 0.00 | 0.00 | 87 | 1017.1 |
| 20260507173821 | 63 | 53 | 7.0 | 9.6 | 0.00 | 0.00 | 0.00 | 87 | 1017.2 |
| 20260507173333 | 63 | 63 | 4.3 | 10.4 | 0.00 | 0.00 | 0.00 | 87 | 1017.4 |
| 20260507172838 | 63 | 44 | 5.2 | 13.9 | 0.00 | 0.00 | 0.00 | 87 | 1017.1 |
| 20260507172320 | 62 | 10 | 7.8 | 11.3 | 0.00 | 0.00 | 0.00 | 87 | 1017.4 |
| 20260507171825 | 62 | 87 | 5.2 | 9.6 | 0.00 | 0.00 | 0.00 | 87 | 1017.0 |
| 20260507171328 | 61 | 59 | 5.2 | 11.3 | 0.00 | 0.00 | 0.00 | 87 | 1017.2 |
| 20260507170834 | 61 | 344 | 4.3 | 12.2 | 0.00 | 0.00 | 0.00 | 87 | 1017.4 |
| 20260507170319 | 61 | 20 | 5.2 | 12.2 | 0.00 | 0.00 | 0.00 | 87 | 1017.3 |
| 20260507165827 | 61 | 18 | 6.1 | 11.3 | 0.00 | 0.00 | 0.00 | 87 | 1017.4 |
| 20260507165331 | 61 | 51 | 6.1 | 10.4 | 0.00 | 0.00 | 0.00 | 87 | 1017.8 |
| 20260507164818 | 61 | 360 | 7.0 | 9.6 | 0.00 | 0.00 | 0.00 | 87 | 1017.5 |
| 20260507164321 | 61 | 12 | 3.5 | 7.8 | 0.00 | 0.00 | 0.00 | 87 | 1017.6 |
| 20260507163838 | 61 | 57 | 4.3 | 7.8 | 0.00 | 0.00 | 0.00 | 87 | 1017.8 |
| 20260507163344 | 61 | 350 | 2.6 | 7.0 | 0.00 | 0.00 | 0.00 | 87 | 1017.9 |
| 20260507162829 | 61 | 316 | 3.5 | 8.7 | 0.00 | 0.00 | 0.00 | 87 | 1018.3 |
| 20260507162333 | 61 | 348 | 3.5 | 8.7 | 0.00 | 0.00 | 0.00 | 87 | 1018.1 |
| 20260507161837 | 61 | 5 | 2.6 | 8.7 | 0.00 | 0.00 | 0.00 | 87 | 1017.9 |
| 20260507161351 | 60 | 18 | 5.2 | 9.6 | 0.00 | 0.00 | 0.00 | 87 | 1018.1 |
| 20260507160834 | 60 | 39 | 6.1 | 10.4 | 0.00 | 0.00 | 0.00 | 87 | 1017.7 |
| 20260507160344 | 60 | 348 | 7.8 | 11.3 | 0.00 | 0.00 | 0.00 | 87 | 1017.5 |
| 20260507155828 | 61 | 347 | 7.0 | 13.0 | 0.00 | 0.00 | 0.00 | 87 | 1017.6 |
| 20260507155336 | 60 | 11 | 7.0 | 13.0 | 0.00 | 0.00 | 0.00 | 88 | 1017.5 |
| 20260507154845 | 60 | 39 | 8.7 | 12.2 | 0.00 | 0.00 | 0.00 | 88 | 1017.3 |
| 20260507154330 | 60 | 312 | 7.0 | 12.2 | 0.00 | 0.00 | 0.00 | 88 | 1017.4 |
| 20260507153819 | 60 | 32 | 8.7 | 12.2 | 0.00 | 0.00 | 0.00 | 88 | 1017.2 |
| 20260507153327 | 60 | 355 | 7.0 | 13.0 | 0.00 | 0.00 | 0.00 | 88 | 1017.2 |
| 20260507152831 | 60 | 355 | 7.8 | 13.0 | 0.00 | 0.00 | 0.00 | 88 | 1017.2 |
| 20260507152337 | 60 | 355 | 8.7 | 15.6 | 0.00 | 0.00 | 0.00 | 88 | 1016.8 |
| 20260507151844 | 60 | 28 | 8.7 | 15.6 | 0.00 | 0.00 | 0.00 | 88 | 1016.9 |
| 20260507151327 | 60 | 34 | 8.7 | 12.2 | 0.00 | 0.00 | 0.00 | 88 | 1017.2 |
| 20260507150833 | 60 | 24 | 9.6 | 12.2 | 0.00 | 0.00 | 0.00 | 88 | 1017.4 |
| 20260507150323 | 59 | 335 | 6.1 | 12.2 | 0.00 | 0.00 | 0.00 | 88 | 1017.5 |
| 20260507145829 | 59 | 31 | 6.1 | 12.2 | 0.00 | 0.00 | 0.00 | 88 | 1017.4 |
| 20260507145339 | 59 | 32 | 7.0 | 12.2 | 0.00 | 0.00 | 0.00 | 88 | 1017.5 |
| 20260507144845 | 59 | 41 | 6.1 | 13.0 | 0.00 | 0.00 | 0.00 | 88 | 1018.0 |
| 20260507144327 | 59 | 351 | 7.0 | 12.2 | 0.00 | 0.00 | 0.00 | 88 | 1017.8 |
| 20260507143832 | 58 | 40 | 5.2 | 13.0 | 0.00 | 0.00 | 0.00 | 88 | 1017.8 |
| 20260507143319 | 58 | 19 | 5.2 | 14.8 | 0.00 | 0.00 | 0.00 | 88 | 1017.7 |
| 20260507142852 | 58 | 348 | 9.6 | 14.8 | 0.00 | 0.00 | 0.00 | 88 | 1017.6 |
| 20260507142331 | 58 | 344 | 8.7 | 13.0 | 0.00 | 0.00 | 0.00 | 88 | 1017.5 |
| 20260507141836 | 58 | 32 | 7.0 | 13.0 | 0.00 | 0.00 | 0.00 | 88 | 1017.4 |
| 20260507141323 | 58 | 360 | 7.0 | 12.2 | 0.00 | 0.00 | 0.00 | 88 | 1017.6 |
| 20260507140847 | 58 | 13 | 7.8 | 14.8 | 0.00 | 0.00 | 0.00 | 88 | 1017.4 |
| 20260507140334 | 58 | 29 | 7.0 | 14.8 | 0.00 | 0.00 | 0.00 | 88 | 1017.8 |
| 20260507135847 | 58 | 328 | 7.0 | 18.2 | 0.00 | 0.00 | 0.00 | 88 | 1018.1 |
| 20260507135329 | 58 | 5 | 8.7 | 18.2 | 0.00 | 0.00 | 0.00 | 88 | 1018.3 |
| 20260507134832 | 58 | 5 | 7.8 | 15.6 | 0.00 | 0.00 | 0.00 | 88 | 1018.3 |
| 20260507134338 | 58 | 329 | 7.8 | 15.6 | 0.00 | 0.00 | 0.00 | 88 | 1018.4 |
| 20260507133821 | 58 | 10 | 5.2 | 12.2 | 0.00 | 0.00 | 0.00 | 88 | 1018.2 |
| 20260507133333 | 58 | 349 | 6.1 | 12.2 | 0.00 | 0.00 | 0.00 | 88 | 1017.9 |
| 20260507132324 | 58 | 12 | 8.7 | 15.6 | 0.00 | 0.00 | 0.00 | 88 | 1017.5 |
| 20260507131338 | 57 | 33 | 8.7 | 16.5 | 0.00 | 0.00 | 0.00 | 87 | 1017.6 |
| 20260507130823 | 58 | 35 | 9.6 | 15.6 | 0.00 | 0.00 | 0.00 | 87 | 1017.6 |
| 20260507130327 | 58 | 340 | 8.7 | 15.6 | 0.00 | 0.00 | 0.00 | 87 | 1017.9 |
| 20260507125834 | 58 | 346 | 7.0 | 12.2 | 0.00 | 0.00 | 0.00 | 87 | 1017.8 |
| 20260507125318 | 58 | 33 | 6.1 | 15.6 | 0.00 | 0.00 | 0.00 | 87 | 1017.6 |
| 20260507124820 | 58 | 360 | 8.7 | 15.6 | 0.00 | 0.00 | 0.00 | 87 | 1017.5 |
| 20260507124322 | 58 | 5 | 7.0 | 12.2 | 0.00 | 0.00 | 0.00 | 87 | 1017.5 |
| 20260507123854 | 58 | 360 | 6.1 | 13.0 | 0.00 | 0.00 | 0.00 | 87 | 1017.6 |
| 20260507123321 | 58 | 333 | 5.2 | 13.0 | 0.00 | 0.00 | 0.00 | 87 | 1017.3 |
| 20260507122830 | 58 | 355 | 4.3 | 8.7 | 0.00 | 0.00 | 0.00 | 87 | 1017.1 |
| 20260507122336 | 58 | 37 | 3.5 | 7.8 | 0.00 | 0.00 | 0.00 | 87 | 1017.2 |
| 20260507121823 | 58 | 21 | 4.3 | 11.3 | 0.00 | 0.00 | 0.00 | 87 | 1017.3 |
| 20260507121328 | 58 | 45 | 6.1 | 11.3 | 0.00 | 0.00 | 0.00 | 87 | 1017.3 |
| 20260507120833 | 58 | 17 | 5.2 | 12.2 | 0.00 | 0.00 | 0.00 | 87 | 1017.4 |
| 20260507120335 | 58 | 344 | 4.3 | 13.9 | 0.00 | 0.00 | 0.00 | 87 | 1017.3 |
| 20260507115821 | 58 | 9 | 3.5 | 13.9 | 0.00 | 0.00 | 0.00 | 87 | 1017.0 |
| 20260507115321 | 58 | 11 | 7.0 | 13.9 | 0.00 | 0.00 | 0.00 | 87 | 1016.7 |
| 20260507114824 | 58 | 24 | 8.7 | 14.8 | 0.00 | 0.00 | 0.00 | 87 | 1016.4 |
| 20260507114356 | 59 | 41 | 8.7 | 14.8 | 0.00 | 0.00 | 0.00 | 87 | 1016.0 |
| 20260507113823 | 59 | 349 | 7.0 | 14.8 | 0.00 | 0.00 | 0.00 | 87 | 1016.0 |
| 20260507113328 | 59 | 5 | 4.3 | 13.0 | 0.00 | 0.00 | 0.00 | 87 | 1016.1 |
| 20260507112834 | 59 | 339 | 6.1 | 13.0 | 0.00 | 0.00 | 0.00 | 87 | 1016.0 |